Torna al catalogo

STARLINK-1373

AttivoComunicazioniVLEO
NORAD 45544·PAYLOAD·🇺🇸 United States

Lanciato Apr 22, 2020 da Cape Canaveral Space Force Station

Loading…

Prossimi Passaggi (prossime 24 ore)

TLE

AggiornatoSource: CelesTrak SupGP

Epoca: Sep 14, 2026, 21:40 UTC

1 45544C 20025P   26257.90326389  .00139500  00000+0  62618-3 0  2573
2 45544  53.0354 235.2337 0005454  48.2558 175.4442 15.83324052    10

Traccia STARLINK-1373 in tempo reale con AllMySat

Download on the App Store